Вернуться в каталог

VIZARD-ION

АктивенНаукаSSO
NORAD 61749·PAYLOAD·🇷🇺 Russia

Запущен Nov 4, 2024 с Vostochny Cosmodrome

Loading…

Ближайшие Пролёты (ближайшие 24 часа)

TLE

СвежийSource: Space-Track

Эпоха: Sep 14, 2026, 14:15 UTC

1 61749U 24199Q   26257.59423836  .00042243  00000-0  49102-3 0  9998
2 61749  97.2801 135.9778 0003091 318.1140  41.9881 15.61623996151496

Отслеживайте VIZARD-ION в реальном времени с AllMySat

Download on the App Store